Wind_Speed
22 24 28 30 31 32 34 34 35 32 30 28 26 24 24 26 26 25 25 26 27 27 28 29 29 29 30 31 34 33 34 35 37 40 43 45 48 49 51 55 57 58 58
23 27 30 31 32 34 34 35 35 32 29 28 27 25 26 26 27 27 28 28 29 29 29 30 30 31 33 35 35 36 38 38 39 41 46 47 49 50 52 55 57 58 52
25 29 31 32 33 33 35 36 34 31 30 29 27 26 27 26 26 26 27 28 28 28 28 28 30 34 37 36 38 39 38 39 42 44 45 46 44 45 48 52 55 52 49
26 30 31 32 33 34 35 33 32 31 30 29 27 25 26 24 24 25 26 27 26 25 26 28 33 36 38 38 39 40 39 41 44 45 45 41 40 43 47 48 46 43 35
27 31 32 32 33 35 34 33 33 30 29 28 26 25 25 25 25 26 26 25 25 25 26 30 34 36 37 37 38 40 42 43 44 45 41 38 39 43 39 37 32 27 25
27 31 33 33 34 34 34 33 30 31 29 27 26 26 26 26 26 25 25 24 25 26 30 34 37 37 36 38 41 43 45 44 45 43 36 35 39 36 30 29 26 23 22
27 31 32 33 35 33 33 31 30 30 29 27 27 27 26 26 26 25 24 24 27 29 33 36 37 38 38 39 42 44 46 47 46 36 33 36 37 27 24 23 21 21 19
27 29 31 32 34 33 31 29 30 30 29 28 28 28 27 27 26 24 25 27 30 33 37 39 38 39 39 41 43 45 47 46 39 32 33 37 26 20 19 20 20 20 19
26 27 29 31 32 31 30 29 31 30 28 28 29 29 28 27 25 24 27 30 33 37 40 39 39 39 40 42 43 45 46 41 31 31 35 29 19 15 17 19 21 21 20
25 26 28 30 30 28 29 29 31 31 30 29 30 30 29 27 25 26 29 32 36 40 39 38 39 40 42 42 44 44 40 32 28 31 34 22 15 15 17 19 19 18 16
23 26 28 30 30 28 28 29 31 32 32 33 32 31 28 26 26 28 31 35 38 38 37 39 40 42 43 44 44 40 34 25 26 32 23 18 15 15 18 18 17 14 14
24 25 27 30 29 28 28 31 31 34 35 35 32 30 27 26 27 30 33 36 36 35 37 38 40 42 43 44 41 37 27 22 24 28 18 14 13 15 17 17 14 12 11
24 25 28 29 27 27 29 31 34 36 35 32 30 28 27 26 28 31 35 35 35 36 38 39 41 43 43 41 37 32 21 21 24 22 16 13 12 14 16 15 13 11 12
23 26 28 28 26 26 30 32 35 35 32 30 29 27 25 27 30 33 34 35 35 36 38 40 43 43 43 39 34 24 18 19 23 19 14 12 11 14 15 15 14 13 13
23 25 26 26 24 28 30 32 33 31 29 27 27 27 27 29 32 33 34 35 36 38 40 42 43 44 42 38 32 18 16 16 22 17 13 12 12 13 15 16 15 14 13
23 24 25 26 28 31 30 32 30 29 26 25 26 27 28 31 32 33 34 34 36 38 40 42 44 43 40 34 24 16 15 16 19 18 13 12 12 14 15 16 17 16 14
23 24 24 25 29 30 29 30 29 28 25 24 25 27 29 30 31 33 33 35 37 39 42 45 44 41 36 28 17 15 14 15 17 16 14 13 13 14 15 16 17 18 17
23 23 26 29 29 27 29 32 33 29 25 24 25 26 27 30 31 32 33 36 38 42 45 46 43 37 30 20 15 13 13 14 15 15 14 13 14 15 16 16 16 16 16
22 24 27 30 26 27 30 31 31 29 26 24 24 24 27 29 30 32 34 37 40 43 47 43 38 34 24 14 15 10 12 14 14 13 14 13 13 15 16 17 18 16 15
21 24 27 26 26 25 27 30 30 28 25 23 24 25 28 29 30 32 35 38 42 46 44 40 36 28 15 14 13 10 13 14 14 15 14 14 15 15 16 17 17 17 17
20 23 24 25 25 25 27 27 26 24 23 23 24 27 28 29 31 33 36 40 44 46 41 37 32 19 13 15 11 11 14 13 14 15 14 15 16 17 18 18 18 18 17
19 22 24 24 23 23 25 26 24 21 23 24 25 28 28 29 31 34 37 41 46 43 38 35 23 13 15 16 12 12 14 14 16 17 16 16 17 18 19 19 20 20 19
19 21 24 23 22 23 24 25 23 21 21 23 27 27 28 30 32 35 38 43 44 40 37 30 14 13 16 13 12 13 14 15 17 18 18 19 19 19 19 20 20 21 21
19 22 23 22 21 22 24 25 22 21 22 24 26 27 29 30 32 35 39 44 42 38 35 19 12 16 16 13 14 14 15 17 18 18 18 18 19 20 20 20 21 21 22
18 21 22 21 20 21 23 24 21 21 23 26 26 27 28 30 33 36 40 42 39 37 28 12 13 16 17 15 15 16 17 17 18 18 19 19 19 19 20 21 22 24 25
18 19 19 20 20 20 23 22 22 22 24 26 26 26 28 31 33 36 41 40 37 34 18 11 15 17 18 17 15 16 18 18 18 19 19 19 19 20 21 22 23 24 24
Wind_Direction
315 322 326 327 326 324 323 328 331 329 326 321 317 313 306 300 297 296 298 300 302 305 305 306 305 305 307 307 309 307 310 312 310 307 305 305 305 304 302 301 299 297 295
318 326 327 328 325 326 325 332 332 331 327 322 317 315 311 304 299 298 299 300 302 303 305 306 307 308 310 313 312 314 316 315 313 311 310 311 310 308 306 306 305 302 299
323 326 327 326 325 326 331 334 334 332 329 323 318 315 315 312 308 305 304 304 305 308 310 310 313 315 316 316 316 317 318 316 314 314 315 314 309 308 309 307 306 303 299
323 324 327 326 327 329 332 333 333 331 330 324 319 318 319 318 314 309 307 307 308 311 312 313 317 319 320 319 318 317 317 317 317 318 318 313 310 311 311 310 309 309 307
321 325 326 327 329 328 332 334 331 332 330 327 323 320 318 315 312 311 310 309 312 313 310 313 317 319 318 318 318 319 321 322 322 322 317 314 315 317 316 318 326 326 316
320 326 326 328 328 330 335 334 333 332 332 329 325 319 317 316 314 313 313 315 315 315 316 318 319 320 323 323 322 323 323 324 324 320 316 318 319 319 317 320 327 326 318
323 324 327 330 327 334 334 334 334 333 332 330 325 321 320 318 316 316 317 316 313 314 317 321 324 325 326 324 324 324 324 325 323 319 320 320 322 319 319 324 331 330 331
320 325 327 329 329 333 334 334 331 334 331 330 325 323 321 318 317 318 316 314 315 318 324 327 327 327 325 326 326 325 325 324 321 320 322 324 323 322 321 327 331 328 328
320 324 326 330 330 332 333 331 333 333 331 327 323 322 322 319 316 314 315 317 322 326 328 327 327 326 327 326 326 326 325 323 319 321 324 325 325 323 325 327 328 329 330
320 325 326 329 328 331 331 331 330 332 330 323 321 323 322 318 316 318 318 324 326 327 326 326 327 327 326 327 328 327 325 321 320 324 328 329 330 328 329 330 333 336 340
317 325 329 328 328 332 331 333 331 332 327 323 326 326 322 316 316 320 323 324 325 326 327 327 328 328 328 329 330 328 326 317 320 329 329 328 326 331 334 338 340 345 351
318 326 329 327 329 331 334 332 332 329 326 326 328 325 321 318 321 319 321 325 326 328 328 328 329 329 330 331 330 329 324 321 326 333 330 327 330 337 340 343 344 348 352
320 328 328 324 328 333 333 331 330 329 328 329 327 324 322 322 319 322 325 327 329 329 329 329 330 330 331 332 331 329 321 326 331 334 330 326 331 339 340 342 340 336 341
324 326 322 322 330 331 329 331 330 330 331 328 325 324 323 322 324 325 328 330 329 329 330 331 331 331 332 332 332 328 324 328 334 333 324 320 331 339 341 341 338 329 327
321 316 317 321 327 328 328 330 331 332 330 329 326 326 324 327 326 328 330 329 330 331 331 331 331 333 333 332 332 326 325 327 334 330 320 323 330 335 339 339 340 334 328
311 312 318 323 330 326 331 330 329 328 328 327 327 325 327 327 327 330 329 330 331 331 331 331 332 332 331 330 330 325 324 329 333 332 320 313 321 326 331 334 336 336 331
308 313 317 325 325 327 331 328 326 324 326 327 326 327 326 326 330 329 330 330 331 332 332 333 333 332 331 329 326 328 326 329 334 332 325 315 316 325 328 329 332 332 332
306 313 320 323 326 332 329 327 327 325 325 327 328 327 326 329 329 329 330 331 332 334 336 335 335 334 332 329 329 332 330 328 332 334 336 329 324 324 327 328 331 334 334
307 317 324 324 330 329 327 330 328 326 328 330 327 327 328 328 330 330 331 333 336 337 337 337 337 336 334 332 333 336 333 337 341 342 343 336 332 331 331 331 333 334 331
311 323 325 326 323 325 327 331 330 329 328 327 327 329 328 330 330 332 335 337 339 339 339 338 338 338 339 338 336 335 339 343 344 347 342 338 337 334 332 334 336 334 333
320 323 322 321 318 322 328 331 333 330 326 326 328 328 330 331 332 335 338 339 339 340 341 340 341 344 349 344 337 339 345 345 347 347 343 341 340 338 338 338 338 336 334
318 317 320 315 313 321 329 332 330 327 326 326 327 329 329 332 334 337 340 340 341 343 342 343 346 353 349 347 347 343 347 349 349 347 348 345 344 341 338 339 339 337 335
311 316 316 312 314 325 330 330 326 327 326 325 329 329 330 332 336 339 342 343 344 344 344 347 357 357 353 354 352 349 352 351 351 350 347 345 343 342 342 342 341 337 334
313 317 312 309 319 327 327 329 329 326 326 328 328 329 330 334 338 342 344 344 346 346 346 353 3 358 1 0 359 0 356 353 352 350 348 344 343 342 343 342 341 337 335
314 314 307 312 321 325 327 329 327 328 328 328 328 328 331 337 341 344 345 346 348 347 349 4 4 3 3 360 356 356 355 355 353 351 350 349 348 349 348 346 343 343 347
312 309 308 313 317 324 328 329 330 328 326 326 325 328 334 340 343 346 347 349 349 349 357 9 4 3 2 360 360 358 356 358 356 354 354 355 354 353 352 351 350 347 346
Height
5787 5783 5778 5773 5768 5762 5758 5752 5746 5740 5734 5729 5725 5721 5718 5715 5712 5709 5706 5703 5700 5696 5693 5688 5684 5680 5676 5671 5667 5662 5657 5653 5647 5639 5634 5628 5621 5615 5607 5600 5594 5588 5582
5782 5777 5772 5767 5762 5757 5751 5745 5739 5734 5728 5724 5720 5716 5712 5709 5706 5703 5700 5697 5693 5689 5685 5681 5676 5672 5667 5662 5657 5652 5647 5641 5636 5629 5621 5615 5607 5600 5591 5584 5576 5568 5563
5776 5772 5767 5762 5757 5751 5746 5740 5734 5728 5723 5719 5714 5710 5707 5703 5700 5697 5694 5690 5686 5682 5678 5674 5669 5664 5659 5653 5647 5642 5637 5631 5624 5618 5611 5603 5595 5588 5580 5570 5561 5553 5547
5771 5767 5762 5756 5751 5746 5740 5734 5728 5722 5718 5714 5709 5705 5702 5698 5694 5691 5687 5683 5679 5676 5672 5668 5662 5657 5651 5645 5639 5632 5628 5622 5614 5607 5600 5592 5585 5577 5569 5559 5550 5539 5534
5766 5762 5757 5751 5746 5742 5736 5728 5722 5717 5713 5708 5704 5700 5696 5692 5688 5684 5681 5677 5674 5670 5666 5661 5656 5650 5644 5636 5630 5623 5617 5611 5604 5596 5588 5581 5574 5567 5557 5549 5541 5534 5528
5762 5757 5752 5747 5742 5737 5730 5723 5718 5714 5708 5703 5699 5695 5691 5687 5683 5679 5675 5672 5667 5664 5659 5654 5648 5642 5635 5627 5620 5613 5607 5601 5594 5586 5579 5573 5565 5557 5550 5543 5537 5531 5526
5756 5752 5748 5743 5738 5731 5725 5719 5714 5708 5703 5698 5694 5690 5685 5681 5677 5673 5670 5666 5662 5658 5653 5647 5640 5633 5627 5620 5613 5605 5597 5590 5583 5576 5571 5564 5557 5550 5544 5538 5533 5528 5523
5752 5747 5743 5738 5733 5726 5720 5714 5709 5702 5698 5693 5689 5685 5681 5676 5672 5668 5665 5661 5656 5651 5645 5639 5632 5626 5619 5612 5605 5596 5588 5580 5572 5567 5562 5556 5549 5544 5539 5535 5530 5525 5520
5746 5742 5738 5732 5727 5720 5714 5710 5704 5697 5692 5688 5683 5679 5675 5671 5667 5664 5660 5655 5649 5643 5637 5631 5624 5618 5611 5605 5597 5588 5579 5571 5565 5560 5554 5548 5544 5540 5535 5531 5526 5521 5516
5741 5737 5732 5725 5721 5714 5709 5704 5699 5693 5688 5683 5678 5674 5670 5667 5662 5658 5654 5649 5643 5636 5631 5624 5617 5611 5604 5597 5589 5580 5571 5564 5559 5553 5546 5542 5539 5536 5532 5527 5522 5518 5513
5736 5731 5725 5720 5716 5710 5705 5698 5693 5688 5682 5678 5674 5670 5666 5662 5657 5654 5649 5644 5637 5631 5624 5617 5610 5603 5596 5588 5580 5572 5564 5559 5554 5548 5542 5538 5535 5532 5528 5523 5519 5516 5512
5731 5725 5720 5716 5711 5705 5699 5694 5688 5683 5678 5673 5669 5665 5662 5658 5653 5649 5644 5638 5631 5625 5618 5611 5604 5596 5588 5580 5572 5564 5558 5554 5549 5543 5539 5535 5532 5529 5525 5521 5517 5514 5511
5725 5720 5715 5711 5705 5699 5694 5689 5684 5678 5673 5670 5665 5660 5657 5653 5649 5644 5638 5632 5625 5618 5612 5605 5597 5589 5581 5573 5565 5558 5552 5549 5544 5539 5535 5533 5530 5526 5522 5519 5515 5512 5509
5720 5715 5711 5706 5699 5694 5690 5684 5679 5674 5669 5664 5660 5657 5653 5649 5644 5638 5632 5626 5619 5613 5606 5598 5590 5582 5574 5566 5559 5552 5548 5544 5540 5536 5533 5530 5527 5524 5520 5517 5514 5511 5507
5713 5710 5705 5699 5694 5689 5685 5680 5675 5669 5664 5659 5656 5653 5649 5644 5639 5633 5627 5620 5613 5606 5599 5591 5583 5574 5566 5558 5552 5547 5544 5540 5537 5533 5530 5528 5524 5521 5518 5515 5512 5509 5506
5708 5703 5700 5695 5689 5686 5682 5676 5671 5665 5659 5655 5652 5649 5645 5639 5634 5628 5622 5615 5608 5601 5594 5585 5576 5567 5559 5552 5546 5543 5539 5537 5533 5529 5527 5524 5522 5519 5516 5513 5510 5507 5503
5703 5699 5695 5689 5685 5683 5678 5673 5666 5661 5656 5652 5649 5645 5640 5635 5629 5623 5617 5610 5603 5596 5588 5578 5569 5560 5552 5546 5542 5539 5536 5534 5530 5527 5523 5521 5518 5516 5513 5510 5507 5504 5500
5698 5694 5690 5686 5683 5679 5675 5670 5665 5659 5654 5649 5645 5640 5636 5631 5625 5619 5612 5606 5598 5589 5580 5571 5562 5553 5546 5542 5539 5536 5533 5531 5527 5524 5521 5518 5515 5513 5510 5507 5504 5501 5498
5693 5690 5687 5685 5680 5676 5671 5665 5660 5657 5651 5645 5641 5636 5632 5626 5621 5615 5608 5601 5592 5583 5574 5564 5556 5548 5542 5539 5536 5533 5531 5528 5525 5522 5519 5516 5513 5510 5508 5505 5501 5498 5495
5689 5686 5683 5680 5676 5670 5666 5661 5657 5652 5648 5642 5637 5633 5628 5623 5617 5611 5603 5595 5587 5578 5568 5559 5551 5544 5540 5537 5534 5531 5529 5526 5523 5520 5517 5514 5511 5509 5505 5502 5499 5495 5492
5684 5681 5677 5673 5670 5666 5662 5656 5651 5648 5644 5640 5635 5630 5625 5619 5613 5606 5599 5591 5582 5572 5563 5555 5547 5541 5538 5536 5532 5530 5528 5525 5522 5519 5515 5512 5509 5506 5503 5499 5495 5492 5489
5679 5675 5671 5669 5665 5661 5657 5652 5647 5643 5640 5637 5632 5627 5622 5616 5609 5603 5595 5586 5577 5567 5559 5551 5544 5540 5538 5534 5532 5529 5526 5524 5520 5517 5514 5510 5507 5504 5500 5496 5492 5488 5485
5673 5669 5667 5665 5663 5657 5654 5649 5645 5640 5637 5633 5629 5624 5619 5612 5606 5599 5591 5582 5573 5563 5555 5548 5543 5541 5537 5534 5531 5528 5525 5523 5520 5516 5512 5508 5505 5501 5498 5494 5490 5485 5481
5668 5666 5663 5661 5658 5654 5650 5646 5642 5639 5634 5630 5626 5621 5616 5609 5602 5595 5587 5578 5569 5560 5553 5547 5544 5541 5537 5534 5531 5528 5525 5522 5519 5515 5511 5507 5503 5499 5495 5491 5487 5482 5478
5663 5661 5659 5658 5655 5650 5646 5643 5639 5636 5632 5628 5623 5618 5612 5606 5600 5592 5584 5575 5566 5558 5551 5547 5544 5541 5538 5534 5531 5528 5525 5522 5518 5514 5510 5506 5502 5498 5494 5489 5484 5479 5474
5659 5657 5657 5654 5650 5646 5643 5639 5636 5633 5630 5626 5621 5615 5609 5603 5597 5589 5581 5572 5564 5556 5550 5548 5545 5542 5538 5535 5531 5528 5524 5520 5517 5513 5509 5505 5501 5496 5492 5487 5482 5477 5472